Other Surface Observations
Issued by NWS

Home | Current Version | Previous Version | Text Only | Print | Product List | Glossary On
Versions: 1 2 3 4 5 6 7 8 9 10 11 12 13 14 15 16 17 18 19 20 21 22 23 24 25 26 27 28 29 30 31 32 33 34 35 36 37 38 39 40 41 42 43 44 45 46 47 48 49 50
000
SXUS52 KTAE 050405
OSOTAE
OSOTAE
North Florida/South Alabama/Southwest Georgia Weather Roundup
National Weather Service Tallahassee Florida
1100 PM EST WED MAR 04 2015

Note: "fair" indicates few or no clouds below 12,000 feet with no
significant weather and/or obstructions to visibility.

!FLZ017-115-028-034-025-050500
...North Florida...

CITY           SKY/WX    TMP DP  RH WIND       PRES   REMARKS
TALLAHASSEE    FOG       67  65  93 S6        30.05S VSB 1/2
APALACHICOLA   CLOUDY    70  67  90 S10       30.04S FOG
PERRY          NOT AVBL
CROSS CITY       N/A     65  64  97 CALM      30.07S
JACKSONVILLE   CLEAR     64  62  93 S3        30.07S
$$

!FLZ112-006-005-002-011-050500
...Florida Panhandle...

CITY           SKY/WX    TMP DP  RH WIND       PRES   REMARKS
MARIANNA       CLOUDY    71  70  96 S9        30.02S
BONIFAY        CLOUDY    71  68  90 S5        30.02S
PANAMA CITY NW FOG       66  66 100 SE7       30.02R VSB 3/4
TYNDALL AFB    CLOUDY    68  67  99 S13       30.02S
TYND DRONE APT MOCLDY    68  69 100 S14       30.02S
DE FUNIAK SPR  CLOUDY    68  68 100 S8        30.02S FOG
EGLIN AFB      FOG       67  67  99 S10       30.00S VSB 1/4
DESTIN         FOG       66  66 100 S8        30.00R VSB 1/2
HURLBURT       FOG       66  61  82 SE8       29.99S VSB 0
CRESTVIEW      CLOUDY    69  68  96 S9        30.01S
PENSACOLA      CLOUDY    70  69  97 S17       29.97F
$$

!ALZ063-066-050500
...South Alabama...

CITY           SKY/WX    TMP DP  RH WIND       PRES   REMARKS
DOTHAN         CLOUDY    69  67  93 S13       30.03F
OZARK CAIRNS   CLOUDY    70  66  87 S7        30.00S
FT RUCKER HELI CLOUDY    70  67  90 S8        29.98F
RUCKER HELI 3  MOCLDY    70  68  94 S9        30.00F
RUCKER HELI 2  CLOUDY    69  67  93 S7        29.99S
FLORALA APT    CLOUDY    70  67  90 S14       30.00
ANDALUSIA      CLOUDY    74  67  78 VRB6      29.98S
TROY           CLOUDY    71  66  84 S9        29.98S
EUFALA         CLOUDY    71  66  84 S8        29.98S
MOBILE         CLOUDY    70  69  97 S13       29.96S
$$

!GAZ120>161-050500
...Southwest and South Central Georgia...

CITY           SKY/WX    TMP DP  RH WIND       PRES   REMARKS
THOMASVILLE    CLOUDY    68 N/A N/A S7        30.06S
BAINBRIDGE     CLOUDY    73  70  88 S7        30.04R
MOODY AFB      CLOUDY    70  66  85 SW12      30.05S
VALDOSTA       CLOUDY    70  67  90 S7        30.06S
MOULTRIE       CLOUDY    68  68 100 S8        30.06S
BLAKELY        CLEAR     72  70  94 S6        30.02S
ALBANY         CLEAR     68  65  90 S14       30.04S
TIFTON         CLOUDY    68  65  90 S9        30.04S
FITZGERALD     FAIR      69  66  92 S10       30.05F
CORDELE        FAIR      70  64  83 S10G16    30.02R
AMERICUS       FAIR      68  64  88 S10       30.01S
HOMERVILLE     FAIR      70  68  94 SW3       30.06S
$$

!GMZ750-755-770-775-050500
...Coastal and Buoy Obs...

STATION/POSITION TIME  TEMP    WIND        PRES    VSBY  WAVE
                       AIR SEA DIR/SP/G                  HT/PER
                 (UTC) (F)     (DEG/KT/KT) (MB)    (MI)  (FT/S)
KEATON BEACH     0400   67     180/  7/  8 1018.3R
CEDAR KEY        0259   67     210/ 11/ 15 1018.6R
C TOWER          0400   67     180/ 12/ 13 1017.3S
APALACHICOLA BUO 0400   70 68  180/  8/ 10 1017.8R         3/ 6
PANAMA CITY BUOY 0243   72 70  170/ 14/ 14 1016.6R         4/ 7
MOBILE BUOY      0255   73 72  180/ 10/ 12 1015.2          4/ 7
ORANGE BCH AL BU 0400   69 66  160/ 14/ 16 1014.1S         3/ 6
$$



USA.gov is the U.S. government's official web portal to all federal, state and local government web resources and services.